User: anonymous   Login
Location: Dampvalley
(47.9094°N, 6.1967°E)
Time: 17:07:11
(UTC+00:00)
Language:

ATLAS 2AS CENTAUR R/B - Orbit

View from above orbital plane
View from above orbital plane
View from above satellite
View from above satellite

Ground track
Ground track

The orbit data is extracted from the following two-line orbital elements,

1 28096U 03054B   21122.92267237 0.00000000  00000-0  00000-0 0    06
2 28096  63.6755  80.0839 0209577 219.0695 140.9305 13.40868091    01
Epoch (UTC): 02 May 2021 22:08:38
Eccentricity: 0.0209577
inclination: 63.6755°
perigee height: 949 km
apogee height: 1263 km
right ascension of ascending node: 80.0839°
argument of perigee: 219.0695°
revolutions per day: 13.40868091
mean anomaly at epoch: 140.9305°
orbit number at epoch: 0

The dashed part of the orbit path shows where the satellite is in the earth's shadow,  

DLR